Location: Lattasburg
(40.8787°N, 82.1085°W)
Time: 05:10:46
(UTC+00:00)

Daily predictions for brighter satellites

Satellite Brightness Start Highest point End
(mag) Time Altitude Azimuth Time Altitude Azimuth Time Altitude Azimuth
CENTAUR R/B 2.4 01:27:59 10° SSW 01:33:40 78° ESE 01:40:28 10° NE
Cosmos 1624 Rocket 4.1 01:30:50 10° SSW 01:36:09 86° ESE 01:41:29 10° NNE
Cosmos 292 Rocket 4.2 01:38:44 10° S 01:43:15 42° ESE 01:47:48 10° NNE
Cosmos 1707 3.6 01:39:53 10° SSE 01:43:19 31° E 01:46:46 10° NNE
Meteor 2-10 4.1 01:40:27 10° N 01:45:28 63° ENE 01:50:34 10° SSE
Meteor 1-22 Rocket 4.3 01:39:58 10° N 01:45:55 83° E 01:51:35 10° S
Okean 2 Rocket 3.8 01:47:18 10° NNW 01:51:44 58° W 01:56:09 10° S
Cosmos 1605 Rocket 4.2 01:47:59 10° N 01:54:22 64° E 02:00:38 10° SSE
Cosmos 2285 Rocket 4.0 01:50:26 10° S 01:56:49 73° ESE 02:03:15 10° NNE
FALCON 9 DEB 3.6 01:54:22 10° SSW 01:57:32 36° SE 02:00:42 10° ENE
Cosmos 1400 Rocket 3.8 01:54:17 10° NNW 01:58:00 45° W 02:01:41 10° SSW
Cosmos 1953 4.2 01:57:12 10° NNE 01:59:52 17° ENE 02:02:13 11° ESE
Cosmos 1452 Rocket 3.8 01:55:29 10° S 02:00:29 46° ESE 02:05:31 10° NNE
Resurs 01 Rocket 1.6 01:56:40 10° SSE 02:01:03 73° ENE 02:05:27 10° N
Cosmos 2263 Rocket 2.3 01:55:28 10° NNW 02:01:12 89° WSW 02:06:50 10° SSE
Cosmos 2151 Rocket 4.2 01:57:01 10° NNW 02:01:21 58° W 02:05:39 10° S
Cosmos 2056 Rocket 4.4 02:00:43 10° SW 02:05:46 52° WNW 02:10:57 10° N
Terra 3.8 02:03:22 10° E 02:05:58 15° ENE 02:08:34 10° NNE
IGS 5A 3.4 02:02:01 10° SSE 02:06:10 79° ENE 02:10:20 10° N
Lacrosse 5 2.1 02:04:27 10° NW 02:09:30 64° NE 02:13:41 15° ESE
In-Cosmos 22 4.3 02:05:21 10° SSE 02:10:25 49° E 02:15:29 10° NNE
SPOT 1/Viking Rocket 3.9 02:06:53 13° SE 02:11:18 52° ENE 02:16:17 10° N
Cosmos 1626 4.0 02:10:37 13° ESE 02:11:39 14° E 02:13:41 10° NE
Cosmos 1975 Rocket 3.8 02:09:40 14° SSE 02:12:58 35° E 02:16:57 10° NNE
Cosmos 2333 Rocket 3.7 02:14:46 15° SE 02:16:51 18° E 02:20:31 10° ENE
MetOp-B 4.1 02:13:57 13° SSE 02:18:48 75° ENE 02:24:09 10° N
Spot 2 Rocket 4.0 02:18:25 16° SE 02:22:05 45° ENE 02:26:54 10° N
KORONAS-FOTON 4.4 02:21:34 19° SSE 02:23:48 37° E 02:27:21 10° NNE
ERS-1 Rocket 3.9 02:24:37 17° ESE 02:27:47 34° ENE 02:32:19 10° N
JB-3 4.5 02:26:00 10° NNE 02:29:53 53° E 02:32:43 18° S
Cosmos 2219 Rocket 3.6 02:29:35 17° ESE 02:31:09 19° E 02:35:05 10° NE
ATLAS CENTAUR R/B 3.9 02:28:59 10° N 02:31:15 14° NE 02:33:34 10° ENE
Landsat 7 4.2 02:29:04 12° S 02:33:28 63° WSW 02:38:13 10° NNW
Cosmos 1470 3.9 02:34:30 10° NNW 02:38:15 42° W 02:41:53 11° SSW
NOSS 3-2 (C) 4.5 02:32:56 10° WSW 02:38:19 47° NW 02:44:28 10° NNE
SPOT 3 Rocket 4.0 02:33:59 11° S 02:38:47 58° WSW 02:43:55 10° NNW
ARIANE 5 R/B 2.9 02:36:14 23° SE 02:38:48 55° ENE 02:43:10 10° N
Cosmos 1674 2.5 02:41:22 23° S 02:43:34 70° E 02:47:15 10° NNE
ATLAS 3B R/B 3.1 02:39:16 14° S 02:44:13 37° ESE 02:50:14 10° NE
Cosmos 1741 Rocket 4.1 02:40:13 10° NNW 02:45:27 65° ENE 02:48:30 25° SE
CZ-2C R/B 4.2 02:41:28 10° N 02:46:12 64° WNW 02:50:54 10° SSW
Cosmos 1315 Rocket 4.1 02:46:20 10° NNW 02:50:11 38° W 02:53:31 13° SSW
SL-16 R/B 3.2 02:46:01 10° SW 02:51:28 48° WNW 02:56:58 10° NNE
Cosmos 2123 Rocket 4.5 02:48:01 23° SE 02:51:29 43° E 02:57:23 10° NNE
Cosmos 2360 Rocket 2.1 02:46:57 10° SSW 02:52:36 80° ESE 02:58:15 10° NNE
Cosmos 2322 Rocket 2.8 02:48:29 10° SW 02:54:05 59° WNW 02:59:45 10° NNE
Cosmos 1300 4.4 02:51:58 10° NNE 02:54:44 19° ENE 02:55:23 18° E
H-2A R/B 4.2 02:54:23 10° NNE 02:58:06 33° E 02:58:45 31° ESE
Cosmos 1544 Rocket 4.0 02:53:57 10° N 02:58:17 48° E 02:59:55 32° SE
Cosmos 1726 4.3 02:58:21 10° NW 03:01:08 21° W 03:03:54 10° SW
Cosmos 1455 Rocket 3.0 02:58:48 10° N 03:03:16 87° W 03:05:24 31° S
Meteor 1-16 Rocket 4.1 02:58:57 10° N 03:04:27 89° W 03:07:26 27° S
Cosmos 2100 Rocket 4.0 02:58:36 10° N 03:05:01 88° E 03:08:59 25° S
COSMOS 2428 3.5 03:06:54 29° SE 03:08:19 33° ESE 03:13:22 10° NE
USA 215 3.4 03:03:02 10° ENE 03:09:20 49° SE 03:15:36 10° SSW
Cosmos 2322 3.9 03:08:14 28° SSE 03:10:56 51° ESE 03:16:24 10° NNE
Cosmos 1340 2.9 03:10:39 45° ESE 03:11:09 49° E 03:14:49 10° NNE
BREEZE-M DEB (TANK) 2.4 03:08:22 10° NW 03:11:11 46° NNE 03:11:14 45° NE
Cosmos 1908 3.2 03:09:42 10° NNW 03:13:35 75° W 03:14:50 41° S
Lacrosse 5 rocket 1.0 03:12:39 10° SW 03:16:20 78° NW 03:19:56 10° NE
Cosmos 405 3.7 03:13:44 10° N 03:16:56 36° ENE 03:17:02 36° E
Cosmos 1110 Rocket 4.2 03:15:28 12° SSW 03:20:17 68° WNW 03:25:30 10° NNE
Cosmos 2278 Rocket 4.3 03:16:46 10° N 03:20:23 17° NE 03:23:55 10° E
Cosmos 2173 Rocket 4.2 03:17:51 10° NNW 03:24:12 71° W 03:28:00 26° S
Cosmos 2016 Rocket 3.9 03:21:01 10° N 03:27:09 81° E 03:29:57 35° SSE
Cosmos 1536 Rocket 3.5 03:26:46 47° SSE 03:27:54 68° E 03:32:20 10° NNE
Cosmos 1844 Rocket 2.7 03:26:23 10° NNW 03:32:04 78° WSW 03:34:17 39° S
SPOT 5 3.3 03:30:02 31° SSW 03:32:24 59° W 03:37:21 10° NNW
Meteor 2-5 Rocket 3.7 03:32:04 39° SSE 03:34:05 67° E 03:39:37 10° NNE
Cosmos 1900 4.4 03:29:15 10° NNW 03:34:08 65° ENE 03:35:33 43° ESE
Cosmos 1953 3.6 03:32:39 10° NNW 03:36:21 34° W 03:37:53 25° SW
Cosmos 1725 Rocket 3.9 03:32:32 10° N 03:38:45 86° E 03:41:21 38° S
Cosmos 1025 Rocket 3.9 03:37:24 24° SW 03:39:43 45° WNW 03:43:56 10° N
SL-14 R/B 3.5 03:39:12 47° SSW 03:40:13 69° W 03:44:15 10° N
Terra 2.0 03:41:40 41° SSW 03:43:10 63° WSW 03:47:54 10° NNW
Cosmos 1626 3.6 03:45:06 23° WSW 03:46:32 32° WNW 03:49:53 10° NNW
FALCON 9 DEB 4.5 03:51:56 29° NNE 03:51:56 29° NNE 03:53:42 10° NE
Cosmos 2228 3.7 03:47:23 10° N 03:51:33 40° ENE 03:51:51 39° E
Lacrosse 5 3.5 03:48:17 10° WNW 03:52:03 21° WSW 03:52:53 20° SW
Cosmos 1461 3.5 03:52:18 10° NW 03:56:15 42° WSW 03:56:19 42° WSW
Cosmos 2333 Rocket 2.5 03:56:42 21° SW 04:00:31 65° WNW 04:06:14 10° NNE
BREEZE-M DEB (TANK) 3.5 03:48:00 10° SW 04:02:07 72° SSE 04:05:55 10° ENE
DNEPR-1 R/B 3.4 03:58:51 10° NNW 04:03:06 76° ENE 04:03:30 69° ESE
ERS-1 Rocket 4.5 04:04:36 21° SW 04:06:35 27° W 04:10:51 10° NW
ATLAS CENTAUR R/B 1.4 04:06:15 10° NNW 04:10:40 89° W 04:10:56 80° SSE
SL-8 R/B 3.5 04:08:29 10° WNW 04:13:17 85° SW 04:13:41 75° SE
Cosmos 2219 Rocket 2.7 04:11:14 24° SW 04:14:34 58° WNW 04:20:11 10° NNE
Cosmos 1844 4.5 04:11:23 10° NW 04:16:32 39° WSW 04:17:50 34° SW
Cosmos 2058 Rocket 4.3 04:13:22 10° NNE 04:17:17 29° ENE 04:17:22 29° ENE
Cosmos 389 Rocket 3.4 04:16:06 10° N 04:18:37 44° NNE 04:18:37 44° NNE
Meteor 1-24 Rocket 4.0 04:19:35 39° SW 04:21:20 58° WNW 04:26:42 10° N
Meteor 2-10 Rocket 3.2 04:16:35 10° N 04:21:42 89° WSW 04:22:19 69° S
Cosmos 1455 3.3 04:19:07 10° N 04:22:07 36° NE 04:22:07 36° NE
SL-16 R/B 4.0 04:25:54 17° E 04:25:54 17° E 04:28:49 10° ENE
ATLAS CENTAUR R/B 3.3 04:26:30 42° ESE 04:26:31 42° ESE 04:35:37 10° NE
Cosmos 1726 Rocket 3.7 04:22:30 10° N 04:26:54 63° ENE 04:26:54 63° ENE
Spot 4 3.7 04:28:51 71° ESE 04:29:14 76° ENE 04:34:02 10° N
Cosmos 2237 Rocket 2.2 04:29:29 55° ESE 04:29:50 56° ESE 04:35:20 10° NNE
Cosmos 1300 4.3 04:27:08 10° NNW 04:30:18 26° W 04:30:18 26° W
Cosmos 1867 3.7 04:28:13 10° NNW 04:33:42 67° NE 04:34:47 54° ESE
ATLAS 3B R/B 3.6 04:28:32 10° WSW 04:34:45 45° NW 04:41:12 10° NNE
Cosmos 1892 Rocket 3.5 04:40:55 80° NNE 04:40:55 80° NNE 04:45:08 10° N
Cosmos 1606 Rocket 3.6 04:36:35 10° NNW 04:40:57 69° W 04:40:57 69° W
Cosmos 1346 Rocket 3.6 04:41:10 43° WNW 04:41:10 43° WNW 04:44:59 10° N
ALOS 2 2.9 04:41:22 55° ENE 04:41:22 55° ENE 04:45:37 10° N
SJ 16-02 3.9 04:44:34 10° NE 04:46:15 12° ENE 04:47:52 10° E
Meteor 1-21 Rocket 4.2 04:46:49 60° SE 04:47:24 64° E 04:53:01 10° NNE
Cosmos 967 Rocket 4.4 04:43:10 10° NW 04:49:32 75° WSW 04:50:46 58° S
SL-4 R/B 3.7 04:52:01 24° NE 04:52:01 24° NE 04:53:34 10° NE
COBE Rocket 3.8 04:50:14 78° SSE 04:50:36 89° ENE 04:55:38 10° N
USA 215 4.0 04:46:03 10° NE 04:52:20 52° NNW 04:58:37 10° WSW
COSMOS 2428 4.0 04:48:51 18° WSW 04:52:29 37° WNW 04:57:47 10° N
Cosmos 1891 Rocket 4.4 04:47:12 10° N 04:53:23 87° E 04:54:39 60° SSE
Lacrosse 5 rocket 4.2 04:54:03 10° WNW 04:55:57 14° NNW 04:57:50 10° N
Cosmos 1513 Rocket 4.3 04:53:02 10° N 04:59:08 88° W 05:00:16 62° S
NOSS 0 Rocket 4.1 04:57:14 41° SW 04:59:24 67° WNW 05:05:38 10° NNE
Cosmos 1486 Rocket 4.3 04:56:53 10° NNW 05:01:54 50° WSW 05:02:04 49° WSW
Cosmos 1072 Rocket 4.5 04:58:19 10° N 05:04:45 80° W 05:06:04 58° SSW
Cosmos 2278 Rocket 2.0 04:59:28 10° NNW 05:05:09 81° WSW 05:05:45 71° S
Cosmos 1703 3.9 05:11:13 54° N 05:11:13 54° N 05:14:21 10° N
Cosmos 1626 Rocket 4.0 05:11:52 56° ENE 05:11:52 56° ENE 05:15:46 10° NNE
Cosmos 1441 Rocket 4.0 05:13:00 51° N 05:13:00 51° N 05:15:58 10° N
Cosmos 1354 Rocket 3.9 05:09:49 10° NNW 05:15:11 81° WSW 05:15:27 77° SSW
Cosmos 1602 Rocket 4.2 05:18:27 48° ENE 05:18:27 48° ENE 05:22:18 10° NNE
GEOS 3 Rocket 4.4 05:20:24 39° WSW 05:20:24 39° WSW 05:25:04 10° NW
Nimbus 7 Rocket 4.4 05:15:50 10° NNE 05:21:55 84° WNW 05:23:07 60° SSW
USA 267 3.2 05:21:42 41° SE 05:24:16 87° NE 05:30:50 10° NW
Cosmos 1464 Rocket 4.4 05:27:47 10° NNW 05:33:55 52° W 05:35:08 45° SW
Okean 1-7 Rocket 4.4 05:35:55 42° WNW 05:35:55 42° WNW 05:40:05 10° N
Aureole 3 4.3 05:34:32 10° N 05:37:46 41° ENE 05:37:46 41° ENE
Cosmos 1607 3.9 05:37:08 10° NW 05:43:27 67° WSW 05:44:12 61° SSW
Cosmos 1634 Rocket 4.2 05:37:56 10° N 05:44:12 63° E 05:45:48 48° SE
Cosmos 1943 Rocket 3.0 05:42:57 10° NNW 05:48:13 43° ENE 05:50:14 31° ESE
Cosmos-2242 3.8 05:44:09 10° N 05:48:21 45° ENE 05:48:21 45° ENE
Cosmos 1825 4.5 05:52:57 17° ENE 05:52:57 17° ENE 05:54:59 10° NE
Cosmos 1812 Rocket 3.7 05:52:53 10° N 05:56:46 69° NNW 05:56:46 69° NNW
Resurs 1-4 Rocket 3.8 05:56:20 10° NE 06:00:13 20° E 06:01:20 19° ESE
Meteor 1-4 Rocket 4.4 05:59:34 10° NNW 06:01:22 25° NW 06:01:22 25° NW
USA 32 4.2 06:00:45 10° NNW 06:05:52 56° W 06:06:09 55° WSW
GP-B 3.6 06:02:45 10° N 06:06:48 51° WNW 06:06:48 51° WNW
SL-16 R/B 2.3 06:07:45 54° WSW 06:08:49 66° WNW 06:14:29 10° NNE
CZ-2D R/B 3.6 06:05:21 10° NE 06:09:28 23° E 06:10:33 22° ESE
USA 229 DEB 3.6 06:08:35 53° SSE 06:09:42 62° ESE 06:16:18 10° NE
USA 229 3.6 06:08:42 53° SSE 06:09:48 61° ESE 06:16:24 10° NE
Cosmos 2237 Rocket 4.0 06:11:17 15° W 06:14:16 23° NW 06:18:39 10° N
Cosmos 468 Rocket 4.3 06:16:01 49° ESE 06:16:26 50° ESE 06:21:27 10° NNE
ADEOS II 4.4 06:15:06 10° ENE 06:17:19 13° E 06:19:30 10° ESE
X-37B 3.1 06:21:11 18° ENE 06:21:11 18° ENE 06:22:08 10° ENE
Cosmos 1408 3.4 06:20:25 49° NE 06:20:25 49° NE 06:23:16 10° NNE
NOSS 3-1 (C) 3.2 06:18:54 55° WSW 06:20:00 72° NW 06:26:07 10° NNE
BREEZE-M DEB (TANK) 4.1 06:20:56 45° SSW 06:23:20 75° SE 06:48:25 10° ENE
Cosmos 1825 Rocket 3.6 06:24:06 75° WNW 06:24:06 75° WNW 06:28:28 10° N
BREEZE M DEB (TANK) 4.2 06:22:37 43° SW 06:24:57 75° SSE 07:04:55 10° ENE
BREEZE M DEB (TANK) 4.2 06:22:37 44° SW 06:24:57 75° SSE 07:04:55 10° ENE
BREEZE M DEB (TANK) 4.2 06:22:37 43° SW 06:24:58 75° SSE 07:04:55 10° ENE
BREEZE M DEB (TANK) 4.2 06:22:37 44° SW 06:24:58 75° SSE 07:04:55 10° ENE
BREEZE M DEB (TANK) 4.2 06:22:37 43° SW 06:24:58 75° SE 07:04:55 10° ENE
SJ 16-02 1.5 06:20:57 10° NNW 06:24:49 62° WNW 06:24:49 62° WNW
Cosmos 2369 Rocket 3.0 06:22:27 10° NNW 06:28:00 48° ENE 06:31:22 23° SE
NOSS 2-3 (E) 3.6 06:29:03 65° WNW 06:29:07 65° NW 06:33:42 10° NNE
NOSS 3-1 (A) 3.0 06:28:32 64° S 06:29:19 77° ESE 06:35:22 10° NE
SL-4 R/B 4.0 06:27:29 15° WNW 06:29:40 23° NNW 06:32:38 10° NE
Cosmos 1869 3.4 06:25:56 10° N 06:29:42 74° N 06:29:42 74° N
SL-16 R/B 3.6 06:26:24 17° SE 06:30:44 40° ENE 06:36:26 10° N
Meteor 2-13 Rocket 4.4 06:30:03 53° S 06:31:38 83° E 06:37:50 10° N
Cosmos 2142 Rocket 4.4 06:29:41 10° N 06:35:49 77° W 06:37:21 52° SSW
Cosmos 1763 Rocket 3.3 06:35:28 66° SSE 06:36:05 76° ESE 06:41:12 10° NNE
Cosmos 1437 Rocket 3.9 06:33:33 10° N 06:37:08 34° ENE 06:37:37 33° E
Cosmos 724 4.4 06:34:51 10° NW 06:40:51 57° WSW 06:41:41 52° SSW
Cosmos 2058 3.3 06:40:52 51° E 06:40:58 51° E 06:44:56 10° NNE
CZ-4 R/B 3.7 06:40:55 10° N 06:45:34 71° WNW 06:46:04 64° WSW
Meteor 1-27 4.4 06:41:17 10° NNW 06:46:38 51° W 06:47:24 47° WSW
Cosmos 1953 Rocket 3.6 06:46:59 64° W 06:47:03 65° W 06:51:26 10° N
Cosmos 2297 3.9 06:41:50 10° NW 06:47:13 48° WSW 06:47:37 47° WSW
ATLAS 5 CENTAUR R/B 3.5 06:48:01 15° ESE 06:48:01 15° ESE 06:50:20 10° ENE
DELTA 2 R/B (1) 3.9 06:48:29 45° SSE 06:48:29 45° SSE 06:53:30 10° E
Cosmos 1892 3.8 06:53:15 34° WNW 06:53:15 34° WNW 06:56:28 10° N
USA 307 4.4 06:58:46 24° ESE 06:58:46 24° ESE 07:01:49 10° ENE
Helios 1A 3.2 06:59:24 55° W 06:59:24 55° W 07:03:19 10° NNW
Cosmos 1633 3.9 07:03:06 29° ESE 07:03:26 30° E 07:06:33 10° NNE
Helios 1B rocket 2.7 07:01:32 10° NNE 07:05:34 55° E 07:06:08 50° SE
USA 267 4.4 07:09:00 23° WSW 07:09:00 23° WSW 07:12:52 10° WNW
Cosmos 1842 Rocket 3.6 07:05:07 10° N 07:09:28 75° E 07:10:27 52° SSE
USA 308 3.8 07:13:55 33° SE 07:13:59 33° SE 07:17:48 10° ENE
NOSS 2-2 (D) 4.1 07:17:58 32° ESE 07:17:58 32° ESE 07:21:04 10° NE
Cosmos 990 Rocket 4.2 07:16:18 10° NNW 07:21:19 51° WSW 07:22:18 44° SW
Cosmos 841 Rocket 3.4 07:19:57 46° SSW 07:21:32 90° ESE 07:26:43 10° NNE
UNK 3.6 07:21:01 42° SSE 07:22:33 89° WSW 07:27:12 10° NNW
Cosmos 405 Rocket 3.9 07:24:00 27° WNW 07:24:00 27° WNW 07:27:06 10° NNW
Cosmos 540 Rocket 3.4 07:22:33 45° SW 07:24:05 73° WNW 07:29:12 10° NNE
Meteor 2-19 Rocket 4.5 07:21:38 32° S 07:24:39 77° E 07:30:48 10° N
Cosmos 921 Rocket 2.9 07:24:20 53° S 07:25:13 77° ESE 07:29:26 10° NNE
Cosmos 1943 3.3 07:23:13 39° SW 07:25:16 65° WNW 07:30:54 10° NNE
Cosmos 1898 Rocket 3.5 07:20:36 10° NNW 07:25:45 60° WSW 07:27:17 42° SSW
Cosmos 1825 3.4 07:27:43 28° WNW 07:27:44 28° WNW 07:31:02 10° NNW
Lacrosse 4 Rocket 3.8 07:25:37 10° N 07:28:52 22° NE 07:32:05 10° ESE
Cosmos 1937 Rocket 3.4 07:25:04 10° NNW 07:30:24 77° WSW 07:32:59 31° S
Cosmos 1603 4.0 07:28:43 34° SW 07:30:58 56° WNW 07:36:33 10° NNE
Cosmos 1943 Rocket 3.3 07:27:15 10° NW 07:31:39 25° WSW 07:31:43 25° WSW
USA 305 3.1 07:32:36 47° S 07:33:21 54° SE 07:37:30 10° ENE
SL-19 R/B 4.1 07:28:11 10° NNE 07:33:28 85° ESE 07:35:55 34° SSW
NPP 3.7 07:29:52 10° N 07:35:15 72° WNW 07:37:30 36° SSW
Resurs 1-4 Rocket 2.5 07:35:09 10° N 07:40:17 50° WNW 07:42:25 32° SW
Cosmos 1076 Rocket 3.5 07:41:45 44° SW 07:42:53 64° W 07:47:07 10° N
Cosmos 1814 Rocket 3.9 07:43:19 35° SSW 07:45:35 83° WNW 07:50:48 10° NNE
Cosmos 2151 3.0 07:45:23 35° S 07:47:05 76° E 07:51:19 10° N
Cosmos 1570 Rocket 3.9 07:45:18 34° SSW 07:47:37 80° WNW 07:52:52 10° NNE
CZ-2D R/B 2.7 07:44:46 10° N 07:49:39 42° WNW 07:51:52 28° WSW
Cosmos 2221 3.4 07:51:17 10° NNW 07:55:04 30° W 07:55:44 29° WSW
USA 306 2.8 07:53:56 38° SW 07:55:29 82° SE 07:59:44 10° NE
X-37B 2.1 07:53:27 14° WNW 07:55:53 36° N 07:58:52 10° ENE
Meteor 1-29 2.9 07:52:54 10° N 07:56:19 66° WNW 07:57:07 46° SW
NOSS 2-2 (E) 3.2 07:56:15 41° WSW 07:57:13 60° NW 08:00:50 10° NNE
ADEOS II 2.1 07:52:16 10° N 07:57:33 77° WNW 08:00:28 27° SSW
AQUA 4.2 07:53:14 10° N 07:57:51 50° WNW 07:59:56 29° SW
Cosmos 2208 Rocket 4.1 07:56:29 29° SSW 07:59:19 79° WNW 08:04:48 10° NNE
DELTA 2 DEB (DPAF) 4.1 08:03:00 17° SSE 08:06:25 86° WSW 08:10:53 10° NNW
Cosmos 2026 Rocket 4.1 08:02:46 24° SSW 08:06:34 64° W 08:12:52 10° N
SeaSat 1 2.7 08:02:08 10° NNE 08:07:02 64° ESE 08:10:13 22° S
ARIANE 5 R/B 3.7 08:04:17 10° NNE 08:08:53 36° E 08:13:28 10° SSE
Cosmos 1606 3.7 08:06:50 10° NNW 08:10:12 29° W 08:10:56 27° WSW
NOSS 2-2 (C) 3.2 08:08:55 33° WSW 08:10:13 58° NW 08:13:46 10° NNE
Cosmos 2369 Rocket 3.3 08:07:12 10° NW 08:11:40 24° WSW 08:13:05 22° WSW
Cosmos 372 Rocket 4.1 08:08:49 10° NNW 08:13:56 54° WSW 08:18:05 15° S
SL-16 R/B 3.3 08:11:30 23° SW 08:14:21 33° W 08:19:51 10° NW
Cosmos 1242 Rocket 3.8 08:11:36 10° NW 08:14:29 23° W 08:14:48 23° W
USA 290 3.0 08:15:00 30° WSW 08:15:57 38° WNW 08:19:00 10° N
IDEFIX/ARIANE 42P 2.6 08:11:39 10° NNE 08:16:56 85° ESE 08:20:56 18° SSW
Cosmos 1656 Rocket 4.4 08:12:49 10° NW 08:17:52 34° WSW 08:20:52 20° SSW
Meteor 1-28 Rocket 3.2 08:18:35 22° S 08:20:53 59° W 08:24:39 10° NNW
USA 281 3.3 08:15:10 10° SSE 08:21:44 86° ENE 08:28:21 10° NNW
IRS-1C 4.5 08:17:06 10° NNE 08:22:25 64° ESE 08:27:23 12° S
CZ-4C R/B 3.5 08:19:42 10° SSE 08:23:35 26° ESE 08:28:01 10° NE
CZ-4B R/B 4.3 08:18:33 10° NNE 08:23:40 49° E 08:28:42 10° S
IRIDIUM 106 4.3 08:18:50 10° N 08:24:05 81° W 08:29:01 11° S
GPS 2-04 Rocket1 3.4 08:23:33 25° SSW 08:24:55 33° S 08:28:21 10° ESE
Cosmos 1437 4.0 08:24:22 10° NW 08:26:23 20° W 08:26:23 20° W
ATLAS 5 CENTAUR R/B 2.1 08:29:31 20° WSW 08:31:58 43° NW 08:36:08 10° NNE
DELTA 2 R/B (1) 3.5 08:29:13 12° W 08:34:25 78° S 08:39:59 10° E
USA 307 3.5 08:34:52 16° WSW 08:38:04 50° NW 08:42:14 10° NE
Cosmos 1766 Rocket 3.5 08:35:18 14° SSW 08:39:02 78° W 08:43:31 10° N
Okean 3 Rocket 3.5 08:36:47 14° SSW 08:40:33 77° W 08:44:56 10° N
Cosmos 2266 Rocket 4.1 08:35:25 10° S 08:41:32 75° E 08:47:35 10° N
ADEOS Rocket 3.9 08:35:06 11° SSW 08:41:55 42° W 08:48:24 10° NNW
Cosmos 2292 Rocket 3.8 08:42:37 19° SW 08:44:06 28° W 08:46:44 10° NNW
Cosmos 1408 Rocket 4.1 08:40:04 10° S 08:44:25 58° E 08:48:49 10° NNE
Cosmos 1151 Rocket 2.9 08:41:51 10° N 08:46:06 75° W 08:50:20 10° S
Meteor 2-3 Rocket 4.2 08:44:05 15° SW 08:48:26 43° WNW 08:53:45 10° N
IRS-1D 4.5 08:44:25 10° N 08:48:59 33° WNW 08:52:49 13° SW
USA 308 3.9 08:50:01 11° WSW 08:53:53 40° NNW 08:57:55 10° NE
Cosmos 1655 Rocket 4.0 08:49:12 10° SSW 08:55:24 75° W 09:01:39 10° N
Alouette 2 Rocket 3.4 08:55:09 10° NNW 08:58:39 55° W 09:02:45 10° S
Cosmos 1782 3.3 08:56:20 10° NNW 09:00:07 42° W 09:03:53 10° SSW
CZ-4C R/B 3.9 08:57:26 11° SSW 09:00:24 30° W 09:03:29 10° NW
ASTEX 1 3.8 08:57:54 10° SSW 09:02:40 46° W 09:07:25 10° NNW
IRS-P3 4.4 08:57:38 10° N 09:02:50 55° WNW 09:08:00 10° SSW
MSX 4.1 08:58:47 10° N 09:04:22 53° WNW 09:09:56 10° SW
ALOS 3.8 09:01:05 10° NNE 09:05:21 35° E 09:09:36 10° SSE
CZ-2C R/B 3.8 09:01:59 10° NNE 09:05:43 45° E 09:09:22 10° S
Lacrosse 4 Rocket 2.0 09:03:56 10° NW 09:07:34 32° WSW 09:11:09 10° S
COSMOS 2406 4.2 09:06:54 10° S 09:12:16 46° ESE 09:17:40 10° NE
USA 305 4.4 09:09:45 10° W 09:13:29 29° NNW 09:17:14 10° NE
BREEZE-M DEB (TANK) 3.4 09:11:52 10° NW 09:14:02 37° NNE 09:17:39 10° E
Cosmos 1812 2.7 09:11:24 10° NNW 09:15:11 61° W 09:18:57 10° S
Chandra Rocket (1) 4.4 09:14:27 10° SW 09:18:33 15° S 09:21:07 10° SSE
Cosmos 1271 Rocket 3.3 09:17:55 10° NNW 09:21:22 36° W 09:24:49 10° SSW
Cosmos 773 Rocket 4.2 09:19:46 10° SSW 09:25:02 76° ESE 09:30:20 10° NNE
Cosmos 2315 Rocket 4.0 09:19:32 10° N 09:25:45 80° W 09:31:56 10° S
